Date,TemperatureHighF,TemperatureAvgF,TemperatureLowF,DewpointHighF,DewpointAvgF,DewpointLowF,HumidityHigh,HumidityAvg,HumidityLow,PressureMaxIn,PressureMinIn,WindSpeedMaxMPH,WindSpeedAvgMPH,GustSpeedMaxMPH,PrecipitationSumIn
2013-3-1,64.0,56.0,50.7,46.1,41.4,38.9,76,59,42,29.88,29.78,9,4,0,0.00
2013-3-2,60.6,52.0,44.4,40.9,36.5,33.6,67,56,44,29.93,29.83,9,4,0,0.00
2013-3-3,55.0,46.0,39.7,36.7,32.2,28.1,73,59,48,30.03,29.87,14,5,0,0.00
2013-3-4,66.7,51.6,37.4,40.2,32.7,28.2,71,51,31,30.12,29.97,12,3,0,0.00
2013-3-5,77.5,61.5,43.9,54.9,46.9,35.7,82,60,41,30.05,29.89,7,3,0,0.00
2013-3-6,67.8,58.8,48.2,60.1,43.0,33.7,90,59,32,30.01,29.81,12,5,0,0.08
2013-3-7,67.6,54.0,43.3,44.4,37.8,31.5,69,55,40,30.09,29.99,14,5,0,0.00
2013-3-8,75.0,59.9,43.0,52.0,42.7,37.6,83,57,28,30.10,29.97,9,4,0,0.00
2013-3-9,74.3,63.4,50.2,52.5,49.1,44.1,81,61,42,30.10,29.99,11,6,0,0.00
2013-3-10,77.9,67.0,57.6,57.0,54.1,50.5,81,65,47,30.04,29.92,18,8,0,0.03
2013-3-11,78.4,68.5,58.1,60.4,56.4,52.3,83,66,53,29.97,29.76,14,5,0,0.00
2013-3-12,71.1,65.6,55.6,65.8,58.9,50.1,91,79,67,29.89,29.73,11,4,0,0.47
2013-3-13,74.8,61.2,51.6,50.1,44.1,39.6,83,57,31,30.04,29.89,14,5,0,0.00
2013-3-14,66.7,56.8,48.0,44.8,38.4,34.4,77,52,32,30.14,30.03,14,6,0,0.01
2013-3-15,73.2,58.1,43.0,47.2,40.5,36.1,84,55,34,30.17,30.01,8,3,0,0.00
2013-3-16,79.9,62.2,45.5,51.9,46.0,39.0,84,58,31,30.07,29.91,6,2,0,0.00
2013-3-17,79.3,65.6,51.8,57.9,53.7,48.7,91,68,47,30.01,29.86,9,2,0,0.03
2013-3-18,78.6,69.9,62.4,63.7,60.3,55.1,84,72,59,29.91,29.74,9,2,0,0.01
2013-3-19,85.3,72.3,63.7,67.0,62.6,58.8,93,74,48,29.86,29.73,8,2,0,0.02
2013-3-20,77.2,69.1,59.9,65.6,61.0,54.5,88,76,58,29.81,29.64,8,3,0,0.02
2013-3-21,72.0,60.7,50.5,56.6,43.3,31.8,89,57,29,29.84,29.72,9,3,0,0.04
2013-3-22,80.2,62.8,49.1,63.8,51.4,37.9,90,68,41,29.88,29.75,9,4,0,0.56
2013-3-23,86.5,73.7,63.5,71.6,65.9,60.7,95,78,55,29.85,29.63,9,2,0,0.07
2013-3-24,82.2,75.2,70.7,71.4,68.8,66.1,91,81,65,29.69,29.47,9,3,0,0.06
2013-3-25,73.4,65.8,53.4,66.3,47.5,32.4,90,56,26,29.89,29.58,9,2,0,0.03
2013-3-26,60.6,52.9,46.0,41.7,33.1,29.8,64,48,34,30.12,29.90,11,5,0,0.38
2013-3-27,64.6,52.1,41.2,37.3,34.6,31.5,69,53,34,30.20,30.08,9,4,0,0.00
2013-3-28,73.0,57.6,41.9,43.9,38.9,35.2,82,53,28,30.19,30.05,9,3,0,0.02
2013-3-29,74.8,61.5,47.7,51.0,44.0,38.0,86,57,28,30.22,30.06,9,2,0,0.01
2013-3-30,80.4,64.4,51.1,55.9,49.6,43.2,86,61,40,30.14,29.98,9,1,0,0.01
2013-3-31,83.7,69.9,59.5,59.3,54.0,49.2,72,58,39,30.05,29.84,9,2,0,0.00